Regional Weather Roundup
Issued by NWS

Home | Current Version | Previous Version | Text Only | Print | Product List | Glossary Off
Versions: 1 2 3 4 5 6 7 8 9 10 11 12 13 14 15 16 17 18 19 20 21 22 23 24 25 26 27 28 29 30 31 32 33 34 35 36 37 38 39 40 41 42 43 44 45 46 47 48 49 50

000
ASUS43 KBIS 032120
RWRND

NORTH DAKOTA REGIONAL WEATHER ROUNDUP
NATIONAL WEATHER SERVICE BISMARCK ND
300 PM CST TUE MAR 03 2015

NOTE: "FAIR" INDICATES FEW OR NO CLOUDS BELOW 12,000 FEET WITH NO
SIGNIFICANT WEATHER AND/OR OBSTRUCTIONS TO VISIBILITY.


NDZ001>003-009>011-017-032200-
NORTHWEST NORTH DAKOTA

CITY           SKY/WX    TMP DP  RH WIND       PRES   REMARKS
WILLISTON      LGT SNOW  10   1  67 NW18      30.03F WCI  -8
MINOT          LGT SNOW   3  -6  66 W26G37    29.97F WCI -21
MINOT AFB      CLOUDY     3  -2  78 NW26G39   29.96F BLWGSNOWWCI -20
$$

NDZ018>021-031>035-040>046-032200-
SOUTHWEST NORTH DAKOTA

CITY           SKY/WX    TMP DP  RH WIND       PRES   REMARKS
BISMARCK       PTSUNNY   13  -3  49 NW25G35   30.01S HAZE    WCI  -7
DICKINSON      PTSUNNY   12  -6  44 W26G35    29.93F WCI  -8
GARRISON         N/A      6  -5  60 NW31G41   29.97F WCI -18
HETTINGER ARPT CLOUDY    14  -6  40 W28G36    29.96F WCI  -6
$$

NDZ004>008-012>016-024-026-027-054-032200-
NORTHEAST NORTH DAKOTA

CITY           SKY/WX    TMP DP  RH WIND       PRES   REMARKS
GRAND FORKS    MOSUNNY   10  -3  55 NW25G33   29.90S WCI -11
GRND FRKS AFB  LGT SNOW   9   0  66 NW24      29.90R WCI -12
DEVILS LAKE    MOSUNNY    3  -8  60 NW28G38   29.89S WCI -21
$$

NDZ022-023-025-028>030-036>039-047>053-032200-
SOUTHEAST NORTH DAKOTA

CITY           SKY/WX    TMP DP  RH WIND       PRES   REMARKS
FARGO          FLURRIES  12   0  58 NW24G33   29.92R WCI  -8
JAMESTOWN      CLOUDY     9  -1  64 NW29G41   29.92F WCI -13
$$



USA.gov is the U.S. government's official web portal to all federal, state and local government web resources and services.